Flag for Mexico Weather past 2 weeks in Matamoros, Tamaulipas, Mexico

Now
79 °F

Broken clouds.


Feels Like: 83 °F
Forecast: 76 / 81 °F
Wind: 10 mph from East

Location: Brownsville / South Padre Island International Airport

Current Time: Jul 10, 2014 at 12:00:18 PM

Latest Report: Jul 10, 2014 at 10:53 AM


Visibility: 10 mi

Pressure: 30.03 "Hg

Humidity: 84%

Dew point: 74 °F

Location of MatamorosLocation

Historic Weather in Matamoros — Graph

°F

Matamoros temperature yesterday

Maximum temperature yesterday: 90 °F (at 12:53 PM)
Minimum temperature yesterday: 74 °F (at 9:53 PM)
Average temperature yesterday: 82 °F

Past Weeks' High & Low Weather Summary

 TemperatureHumidityPressure
High95 °F (Jul 2, 2:53 PM)100% (Jun 30, 8:53 PM)30.13 "Hg (Jun 30, 8:53 PM)
Low73 °F (Jun 26, 4:53 AM)37% (Jul 2, 1:53 PM)29.81 "Hg (Jun 27, 4:53 PM)
Average83 °F79%29.98 "Hg
* Reported Jun 25 10:04 AM — Jul 10 10:53 AM, Matamoros, Weather by CustomWeather, © 2014

Note: Actual official high and low records may vary slightly from our data, if they occured in-between our weather recording intervals... More about our weather records

Advertising

Matamoros weather history for previous 24 hours

 ConditionsComfort  
Time TempWeatherWind HumidityBarometerVisibility
10:53 AM
Jul 10
79 °FBroken clouds.10 mph84%30.03 "Hg10 mi
9:53 AM80 °FPassing clouds.10 mph76%30.00 "Hg10 mi
8:53 AM77 °FOvercast.8 mph82%30.01 "Hg10 mi
7:53 AM76 °FOvercast.7 mph91%30.02 "Hg10 mi
6:53 AM74 °FLight rain. Mostly cloudy.3 mph91%30.01 "Hg10 mi
5:53 AM74 °FOvercast.5 mph88%29.97 "Hg10 mi
4:53 AM74 °FOvercast.7 mph88%29.96 "Hg10 mi
3:53 AM74 °FPassing clouds.13 mph85%29.96 "Hg10 mi
2:53 AM73 °FPartly cloudy.15 mph94%29.99 "Hg10 mi
1:53 AM74 °FPassing clouds.6 mph91%30.02 "Hg10 mi
12:53 AM74 °FClear.No wind91%30.01 "Hg10 mi
11:53 PM
Jul 9
74 °FLight rain. Passing clouds.3 mph88%30.01 "Hg10 mi
10:53 PM74 °FPassing clouds.5 mph88%30.03 "Hg10 mi
9:53 PM74 °FPassing clouds.10 mph88%30.03 "Hg10 mi
8:53 PM82 °FPassing clouds.9 mph79%30.01 "Hg10 mi
7:53 PM83 °FSunny.13 mph72%29.98 "Hg10 mi
6:53 PM85 °FSunny.12 mph63%29.97 "Hg10 mi
5:53 PM85 °FSunny.14 mph65%29.97 "Hg10 mi
4:53 PM87 °FPassing clouds.14 mph55%29.98 "Hg10 mi
3:53 PM88 °FPassing clouds.13 mph57%29.99 "Hg10 mi
2:53 PM90 °FPassing clouds.15 mph56%30.01 "Hg10 mi
1:53 PM88 °FPassing clouds.18 mph59%30.03 "Hg10 mi
12:53 PM90 °FScattered clouds.21 mph57%30.04 "Hg10 mi
Weather by CustomWeather, © 2014

See weather overviewHow to use our weather pages